Time,TemperatureF,DewpointF,PressureIn,WindDirection,WindDirectionDegrees,WindSpeedMPH,WindSpeedGustMPH,Humidity,HourlyPrecipIn,Conditions,Clouds,dailyrainin,SoftwareType,DateUTC
2013-01-30 00:01:00,64.4,62.0,29.48,SSW,207,3.0,8.0,93,0.36,,,0.41,weatherlink.com 1.10,2013-01-30 06:01:00,
2013-01-30 00:17:00,61.4,56.0,29.61,WNW,295,4.0,21.0,83,0.57,,,0.20,weatherlink.com 1.10,2013-01-30 06:17:00,
2013-01-30 00:33:00,56.3,54.0,29.62,NNE,12,2.0,6.0,92,1.00,,,0.64,weatherlink.com 1.10,2013-01-30 06:33:00,
2013-01-30 00:47:00,55.7,54.0,29.62,NNE,19,1.0,7.0,94,1.08,,,0.78,weatherlink.com 1.10,2013-01-30 06:47:00,
2013-01-30 01:03:00,55.3,54.0,29.59,WNW,302,1.0,4.0,94,0.84,,,0.84,weatherlink.com 1.10,2013-01-30 07:03:00,
2013-01-30 01:17:00,55.1,54.0,29.60,NNW,340,1.0,4.0,95,0.64,,,0.86,weatherlink.com 1.10,2013-01-30 07:17:00,
2013-01-30 01:33:00,55.0,54.0,29.61,NE,49,0.0,1.0,95,0.24,,,0.89,weatherlink.com 1.10,2013-01-30 07:33:00,
2013-01-30 01:48:00,55.0,54.0,29.62,NE,53,0.0,0.0,95,0.12,,,0.91,weatherlink.com 1.10,2013-01-30 07:48:00,
2013-01-30 02:02:00,54.8,53.0,29.61,East,82,0.0,0.0,95,0.10,,,0.94,weatherlink.com 1.10,2013-01-30 08:02:00,
2013-01-30 02:18:00,54.8,53.0,29.61,SE,131,1.0,1.0,95,0.12,,,0.98,weatherlink.com 1.10,2013-01-30 08:18:00,
2013-01-30 02:34:00,54.8,53.0,29.61,SSE,167,0.0,0.0,95,0.17,,,1.06,weatherlink.com 1.10,2013-01-30 08:34:00,
2013-01-30 02:48:00,54.8,54.0,29.62,SSE,166,0.0,0.0,96,0.24,,,1.15,weatherlink.com 1.10,2013-01-30 08:48:00,
2013-01-30 03:03:00,54.8,54.0,29.62,SSW,203,2.0,2.0,96,0.26,,,1.20,weatherlink.com 1.10,2013-01-30 09:03:00,
2013-01-30 03:19:00,54.7,54.0,29.62,SW,228,0.0,1.0,96,0.27,,,1.25,weatherlink.com 1.10,2013-01-30 09:19:00,
2013-01-30 03:33:00,54.7,54.0,29.63,SSW,203,0.0,1.0,96,0.23,,,1.29,weatherlink.com 1.10,2013-01-30 09:33:00,
2013-01-30 03:48:00,54.9,54.0,29.63,SW,236,0.0,1.0,96,0.18,,,1.33,weatherlink.com 1.10,2013-01-30 09:48:00,
2013-01-30 04:04:00,54.9,54.0,29.62,SSE,155,0.0,0.0,96,0.19,,,1.39,weatherlink.com 1.10,2013-01-30 10:04:00,
2013-01-30 04:18:00,54.9,54.0,29.58,SE,144,1.0,1.0,96,0.17,,,1.42,weatherlink.com 1.10,2013-01-30 10:18:00,
2013-01-30 04:34:00,54.6,54.0,29.58,SSE,150,1.0,2.0,96,0.14,,,1.43,weatherlink.com 1.10,2013-01-30 10:34:00,
2013-01-30 04:49:00,54.2,53.0,29.56,SSW,210,1.0,3.0,95,0.10,,,1.44,weatherlink.com 1.10,2013-01-30 10:49:00,
2013-01-30 05:03:00,54.0,53.0,29.56,SSW,200,1.0,3.0,95,0.05,,,1.44,weatherlink.com 1.10,2013-01-30 11:03:00,
2013-01-30 05:19:00,54.1,53.0,29.57,SSE,156,1.0,4.0,95,0.02,,,1.44,weatherlink.com 1.10,2013-01-30 11:19:00,
2013-01-30 05:35:00,53.9,53.0,29.57,SSW,212,0.0,5.0,95,0.01,,,1.44,weatherlink.com 1.10,2013-01-30 11:35:00,
2013-01-30 05:49:00,53.7,52.0,29.56,SE,140,2.0,3.0,94,0.00,,,1.44,weatherlink.com 1.10,2013-01-30 11:49:00,
2013-01-30 06:04:00,53.5,52.0,29.55,SSE,168,2.0,5.0,94,0.00,,,1.44,weatherlink.com 1.10,2013-01-30 12:04:00,
2013-01-30 06:19:00,53.4,52.0,29.56,SSE,160,1.0,3.0,94,0.00,,,1.44,weatherlink.com 1.10,2013-01-30 12:19:00,
2013-01-30 06:34:00,53.3,52.0,29.58,SW,233,2.0,3.0,94,0.00,,,1.44,weatherlink.com 1.10,2013-01-30 12:34:00,
2013-01-30 06:49:00,53.3,51.0,29.58,SSW,197,2.0,4.0,93,0.00,,,1.44,weatherlink.com 1.10,2013-01-30 12:49:00,
2013-01-30 07:04:00,53.4,52.0,29.58,SSW,193,2.0,6.0,93,0.00,,,1.44,weatherlink.com 1.10,2013-01-30 13:04:00,
2013-01-30 07:19:00,53.5,52.0,29.59,SW,228,1.0,5.0,93,0.00,,,1.44,weatherlink.com 1.10,2013-01-30 13:19:00,
2013-01-30 07:34:00,53.6,52.0,29.59,SSE,167,2.0,4.0,93,0.00,,,1.44,weatherlink.com 1.10,2013-01-30 13:34:00,
2013-01-30 07:49:00,53.8,52.0,29.59,SSW,195,3.0,5.0,93,0.00,,,1.44,weatherlink.com 1.10,2013-01-30 13:49:00,
2013-01-30 08:04:00,54.1,52.0,29.58,SSE,160,4.0,6.0,91,0.00,,,1.44,weatherlink.com 1.10,2013-01-30 14:04:00,
2013-01-30 08:19:00,54.5,52.0,29.60,SSE,161,2.0,7.0,90,0.00,,,1.44,weatherlink.com 1.10,2013-01-30 14:19:00,
2013-01-30 08:34:00,55.0,52.0,29.57,SW,217,4.0,7.0,89,0.00,,,1.44,weatherlink.com 1.10,2013-01-30 14:34:00,
2013-01-30 09:04:00,55.5,51.0,29.59,SSW,208,3.0,7.0,85,0.00,,,1.44,weatherlink.com 1.10,2013-01-30 15:04:00,
2013-01-30 09:19:00,55.9,51.0,29.59,WSW,239,4.0,10.0,83,0.00,,,1.44,weatherlink.com 1.10,2013-01-30 15:19:00,
2013-01-30 09:34:00,56.0,50.0,29.60,SW,228,3.0,7.0,81,0.00,,,1.44,weatherlink.com 1.10,2013-01-30 15:34:00,
2013-01-30 09:49:00,55.9,50.0,29.59,SW,224,2.0,8.0,79,0.00,,,1.44,weatherlink.com 1.10,2013-01-30 15:49:00,
2013-01-30 10:04:00,55.9,50.0,29.61,SW,236,1.0,9.0,79,0.00,,,1.44,weatherlink.com 1.10,2013-01-30 16:04:00,
2013-01-30 10:19:00,55.9,48.0,29.60,SW,225,5.0,9.0,74,0.00,,,1.44,weatherlink.com 1.10,2013-01-30 16:19:00,
2013-01-30 10:34:00,55.3,46.0,29.61,West,270,3.0,10.0,72,0.00,,,1.44,weatherlink.com 1.10,2013-01-30 16:34:00,
2013-01-30 10:49:00,54.9,45.0,29.64,North,351,5.0,14.0,70,0.00,,,1.44,weatherlink.com 1.10,2013-01-30 16:49:00,
2013-01-30 11:04:00,55.9,46.0,29.64,WNW,290,3.0,13.0,70,0.00,,,1.44,weatherlink.com 1.10,2013-01-30 17:04:00,
2013-01-30 11:19:00,54.9,46.0,29.59,South,172,4.0,9.0,71,0.00,,,1.44,weatherlink.com 1.10,2013-01-30 17:19:00,
2013-01-30 11:34:00,54.9,46.0,29.62,SSW,208,2.0,11.0,71,0.00,,,1.44,weatherlink.com 1.10,2013-01-30 17:34:00,
2013-01-30 11:49:00,55.0,46.0,29.62,SW,224,7.0,11.0,71,0.00,,,1.44,weatherlink.com 1.10,2013-01-30 17:49:00,
2013-01-30 12:04:00,54.4,46.0,29.60,SW,222,8.0,11.0,72,0.00,,,1.44,weatherlink.com 1.10,2013-01-30 18:04:00,
2013-01-30 12:19:00,53.8,46.0,29.61,WNW,295,4.0,10.0,74,0.00,,,1.44,weatherlink.com 1.10,2013-01-30 18:19:00,
2013-01-30 12:35:00,53.2,43.0,29.61,WSW,248,3.0,14.0,68,0.00,,,1.44,weatherlink.com 1.10,2013-01-30 18:35:00,
2013-01-30 12:50:00,52.1,42.0,29.65,NW,306,4.0,13.0,69,0.00,,,1.44,weatherlink.com 1.10,2013-01-30 18:50:00,
2013-01-30 13:05:00,51.4,42.0,29.64,WSW,257,4.0,17.0,69,0.00,,,1.44,weatherlink.com 1.10,2013-01-30 19:05:00,
2013-01-30 13:20:00,51.4,42.0,29.64,WNW,285,4.0,11.0,69,0.00,,,1.44,weatherlink.com 1.10,2013-01-30 19:20:00,
2013-01-30 13:35:00,50.7,40.0,29.65,SW,225,3.0,16.0,67,0.00,,,1.44,weatherlink.com 1.10,2013-01-30 19:35:00,
2013-01-30 13:50:00,49.0,39.0,29.67,SSW,212,6.0,16.0,68,0.00,,,1.44,weatherlink.com 1.10,2013-01-30 19:50:00,
2013-01-30 14:05:00,48.1,39.0,29.67,WSW,240,4.0,13.0,71,0.00,,,1.44,weatherlink.com 1.10,2013-01-30 20:05:00,
2013-01-30 14:20:00,47.4,38.0,29.68,NW,324,7.0,14.0,70,0.00,,,1.44,weatherlink.com 1.10,2013-01-30 20:20:00,
2013-01-30 14:35:00,46.8,37.0,29.70,WNW,293,8.0,13.0,70,0.00,,,1.44,weatherlink.com 1.10,2013-01-30 20:35:00,
2013-01-30 14:50:00,44.4,36.0,29.72,WSW,252,12.0,15.0,73,0.00,,,1.44,weatherlink.com 1.10,2013-01-30 20:50:00,
2013-01-30 15:05:00,42.9,36.0,29.74,NW,316,2.0,14.0,77,0.00,,,1.44,weatherlink.com 1.10,2013-01-30 21:05:00,
2013-01-30 15:20:00,43.0,36.0,29.75,WSW,238,2.0,9.0,76,0.00,,,1.44,weatherlink.com 1.10,2013-01-30 21:20:00,
2013-01-30 15:35:00,43.6,35.0,29.75,West,278,2.0,11.0,72,0.00,,,1.44,weatherlink.com 1.10,2013-01-30 21:35:00,
2013-01-30 15:50:00,44.0,34.0,29.76,WSW,256,2.0,12.0,69,0.00,,,1.44,weatherlink.com 1.10,2013-01-30 21:50:00,
2013-01-30 16:05:00,44.4,34.0,29.76,West,273,2.0,12.0,66,0.00,,,1.44,weatherlink.com 1.10,2013-01-30 22:05:00,
2013-01-30 16:20:00,44.9,32.0,29.77,WNW,290,3.0,14.0,60,0.00,,,1.44,weatherlink.com 1.10,2013-01-30 22:20:00,
2013-01-30 16:35:00,44.4,32.0,29.79,NW,321,10.0,12.0,62,0.00,,,1.44,weatherlink.com 1.10,2013-01-30 22:35:00,
2013-01-30 16:50:00,43.5,31.0,29.80,NW,307,8.0,16.0,62,0.00,,,1.44,weatherlink.com 1.10,2013-01-30 22:50:00,
2013-01-30 17:05:00,42.7,30.0,29.81,East,82,3.0,15.0,60,0.00,,,1.44,weatherlink.com 1.10,2013-01-30 23:05:00,
2013-01-30 17:20:00,42.0,30.0,29.82,WNW,293,6.0,15.0,62,0.00,,,1.44,weatherlink.com 1.10,2013-01-30 23:20:00,
2013-01-30 17:35:00,41.6,28.0,29.84,WSW,245,11.0,16.0,60,0.00,,,1.44,weatherlink.com 1.10,2013-01-30 23:35:00,
2013-01-30 17:51:00,41.0,27.0,29.86,West,278,4.0,16.0,59,0.00,,,1.44,weatherlink.com 1.10,2013-01-30 23:51:00,
2013-01-30 18:06:00,40.6,28.0,29.87,West,275,5.0,19.0,61,0.00,,,1.44,weatherlink.com 1.10,2013-01-31 00:06:00,
2013-01-30 18:21:00,40.1,28.0,29.89,WNW,284,2.0,14.0,62,0.00,,,1.44,weatherlink.com 1.10,2013-01-31 00:21:00,
2013-01-30 18:36:00,39.9,28.0,29.91,NW,316,4.0,13.0,63,0.00,,,1.44,weatherlink.com 1.10,2013-01-31 00:36:00,
2013-01-30 18:51:00,39.4,27.0,29.91,West,267,5.0,9.0,62,0.00,,,1.44,weatherlink.com 1.10,2013-01-31 00:51:00,
2013-01-30 19:06:00,38.9,28.0,29.92,WSW,249,5.0,11.0,64,0.00,,,1.44,weatherlink.com 1.10,2013-01-31 01:06:00,
2013-01-30 19:21:00,38.6,28.0,29.93,WNW,300,4.0,9.0,66,0.00,,,1.44,weatherlink.com 1.10,2013-01-31 01:21:00,
2013-01-30 19:36:00,38.3,28.0,29.94,North,349,3.0,10.0,66,0.00,,,1.44,weatherlink.com 1.10,2013-01-31 01:36:00,
2013-01-30 19:51:00,38.0,28.0,29.95,West,273,5.0,9.0,67,0.00,,,1.44,weatherlink.com 1.10,2013-01-31 01:51:00,
2013-01-30 20:06:00,38.0,27.0,29.96,WNW,293,2.0,13.0,66,0.00,,,1.44,weatherlink.com 1.10,2013-01-31 02:06:00,
2013-01-30 20:21:00,37.8,27.0,29.98,WNW,293,3.0,12.0,65,0.00,,,1.44,weatherlink.com 1.10,2013-01-31 02:21:00,
2013-01-30 20:36:00,37.7,27.0,29.99,NW,304,2.0,15.0,66,0.00,,,1.44,weatherlink.com 1.10,2013-01-31 02:36:00,
2013-01-30 20:51:00,37.3,27.0,30.00,NW,316,3.0,8.0,67,0.00,,,1.44,weatherlink.com 1.10,2013-01-31 02:51:00,
2013-01-30 21:06:00,37.1,27.0,30.01,WSW,253,2.0,9.0,67,0.00,,,1.44,weatherlink.com 1.10,2013-01-31 03:06:00,
2013-01-30 21:21:00,37.1,26.0,30.02,NW,315,3.0,9.0,65,0.00,,,1.44,weatherlink.com 1.10,2013-01-31 03:21:00,
2013-01-30 21:36:00,36.7,26.0,30.02,SW,236,1.0,11.0,66,0.00,,,1.44,weatherlink.com 1.10,2013-01-31 03:36:00,
2013-01-30 21:51:00,36.2,27.0,30.03,SW,229,0.0,5.0,68,0.00,,,1.44,weatherlink.com 1.10,2013-01-31 03:51:00,
2013-01-30 22:06:00,35.8,27.0,30.04,SW,226,4.0,8.0,69,0.00,,,1.44,weatherlink.com 1.10,2013-01-31 04:06:00,
2013-01-30 22:21:00,35.5,27.0,30.04,NW,322,1.0,6.0,71,0.00,,,1.44,weatherlink.com 1.10,2013-01-31 04:21:00,
2013-01-30 22:36:00,35.2,27.0,30.05,West,275,2.0,3.0,72,0.00,,,1.44,weatherlink.com 1.10,2013-01-31 04:36:00,
2013-01-30 22:51:00,35.3,27.0,30.05,WNW,283,1.0,5.0,72,0.00,,,1.44,weatherlink.com 1.10,2013-01-31 04:51:00,
2013-01-30 23:06:00,35.1,27.0,30.05,NW,308,6.0,6.0,73,0.00,,,1.44,weatherlink.com 1.10,2013-01-31 05:06:00,
2013-01-30 23:21:00,35.1,27.0,30.05,West,259,1.0,6.0,73,0.00,,,1.44,weatherlink.com 1.10,2013-01-31 05:21:00,
2013-01-30 23:36:00,35.0,27.0,30.06,WNW,297,3.0,6.0,73,0.00,,,1.44,weatherlink.com 1.10,2013-01-31 05:36:00,
2013-01-30 23:52:00,34.8,27.0,30.06,West,278,2.0,5.0,74,0.00,,,1.44,weatherlink.com 1.10,2013-01-31 05:52:00,